period_start,C,m1,H,J0,J1,J2,J3,J4,J5,JA,JB,JC,JD,JJ,JK,JN,#
2018-06-27 00:02:17,0.02,0.60,0.00,22.22,25.53,28.19,13.90,47.33,1016.13,2036.00,3100.19,2946.64,3363.93,600.02,597.37,36.98,0000 0000 0000 0000 000000
2018-06-27 00:07:19,0.01,0.60,0.00,22.26,25.55,28.20,13.93,47.28,1016.13,2035.97,3100.01,2946.11,3363.41,599.81,596.91,37.03,0000 0000 0000 0000 000000
2018-06-27 00:12:20,0.00,0.60,0.00,22.29,25.57,28.23,13.89,47.45,1016.13,2035.96,3099.99,2946.00,3363.03,599.22,596.39,37.08,0000 0000 0000 0000 000000
2018-06-27 00:17:22,-0.00,0.60,0.00,22.31,25.60,28.23,14.00,47.17,1016.13,2035.90,3099.91,2946.00,3363.00,600.41,597.58,37.13,0000 0000 0000 0000 000000
2018-06-27 00:22:23,0.00,0.60,0.00,22.34,25.62,28.27,13.86,47.27,1016.13,2035.77,3099.43,2945.98,3362.99,599.72,596.80,37.18,0000 0000 0000 0000 000000
2018-06-27 00:27:24,-0.03,0.60,0.00,22.37,25.65,28.29,13.97,47.39,1016.13,2035.38,3099.06,2945.80,3362.77,600.01,596.97,37.23,0000 0000 0000 0000 000000
2018-06-27 00:32:25,0.01,0.60,0.00,22.38,25.67,28.33,13.96,47.46,1016.11,2035.15,3098.93,2945.21,3362.16,600.07,597.17,37.28,0000 0000 0000 0000 000000
2018-06-27 00:37:27,0.00,0.60,0.00,22.42,25.69,28.33,13.92,47.49,1016.07,2035.03,3098.39,2945.00,3361.98,600.02,596.90,37.33,0000 0000 0000 0000 000000
2018-06-27 00:42:28,0.01,0.60,0.00,22.46,25.71,28.36,13.91,47.41,1016.11,2035.01,3098.06,2944.98,3361.82,600.13,597.02,37.38,0000 0000 0000 0000 000000
2018-06-27 00:47:29,0.01,0.60,0.00,22.49,25.74,28.37,13.91,47.45,1016.13,2035.00,3098.00,2944.84,3361.17,599.77,596.56,37.43,0000 0000 0000 0000 000000
2018-06-27 00:52:30,0.02,0.60,0.00,22.53,25.77,28.40,13.93,47.49,1016.12,2035.00,3097.98,2944.16,3361.01,600.02,596.66,37.48,0000 0000 0000 0000 000000
2018-06-27 00:57:31,0.00,0.60,0.00,22.56,25.80,28.43,13.89,47.55,1016.02,2035.00,3097.92,2944.03,3361.00,599.90,596.53,37.53,0000 0000 0000 0000 000000
2018-06-27 01:02:32,0.00,0.60,0.00,22.58,25.82,28.45,13.94,47.70,1015.92,2034.96,3097.38,2944.00,3360.90,600.36,596.83,37.58,0000 0000 0000 0000 000000
2018-06-27 01:07:33,0.01,0.60,0.00,22.63,25.85,28.47,13.92,47.41,1016.01,2034.90,3097.02,2944.00,3360.31,599.94,596.33,37.63,0000 0000 0000 0000 000000
2018-06-27 01:12:34,-0.04,0.60,0.00,22.66,25.87,28.48,13.89,47.44,1016.12,2034.40,3097.00,2943.84,3360.01,600.00,596.38,37.68,0000 0000 0000 0000 000000
2018-06-27 01:17:36,-0.00,0.60,0.00,22.69,25.90,28.51,13.89,47.44,1016.06,2034.09,3096.95,2943.26,3359.98,599.75,596.06,37.73,0000 0000 0000 0000 000000
2018-06-27 01:22:37,0.01,0.60,0.00,22.73,25.92,28.54,13.90,47.28,1016.04,2034.02,3096.42,2943.01,3359.71,600.03,596.24,37.78,0000 0000 0000 0000 000000
2018-06-27 01:27:38,0.01,0.60,0.00,22.74,25.95,28.56,13.91,47.34,1016.08,2034.00,3096.04,2942.99,3359.09,600.02,596.37,37.83,0000 0000 0000 0000 000000
2018-06-27 01:32:39,0.00,0.60,0.00,22.78,25.97,28.58,13.89,47.50,1016.03,2034.00,3096.00,2942.89,3358.99,599.94,596.08,37.88,0000 0000 0000 0000 000000
2018-06-27 01:37:40,0.01,0.60,0.00,22.82,26.00,28.62,13.88,47.26,1016.02,2033.98,3095.94,2942.27,3358.92,599.75,595.82,37.94,0000 0000 0000 0000 000000
2018-06-27 01:42:41,0.01,0.60,0.00,22.84,26.03,28.65,13.85,47.25,1016.10,2033.98,3095.82,2942.07,3358.65,599.89,595.90,37.99,0000 0000 0000 0000 000000
2018-06-27 01:47:42,0.01,0.60,0.00,22.87,26.06,28.68,13.95,47.29,1015.96,2033.94,3095.13,2942.01,3358.06,600.48,596.40,38.04,0000 0000 0000 0000 000000
2018-06-27 01:52:44,-0.03,0.60,0.00,22.91,26.09,28.70,13.93,47.33,1015.75,2033.71,3095.01,2941.99,3358.00,600.24,595.94,38.09,0000 0000 0000 0000 000000
2018-06-27 01:57:45,-0.03,0.60,0.00,22.94,26.11,28.72,13.93,47.34,1015.67,2033.23,3095.00,2941.96,3357.97,600.15,595.74,38.14,0000 0000 0000 0000 000000
2018-06-27 02:02:46,0.02,0.60,0.00,22.96,26.15,28.76,13.76,47.17,1015.66,2033.04,3094.81,2941.34,3357.44,599.74,595.51,38.19,0000 0000 0000 0000 000000
2018-06-27 02:07:47,0.01,0.60,0.00,22.99,26.17,28.78,13.90,47.36,1015.65,2033.00,3094.20,2941.02,3357.02,599.96,595.48,38.24,0000 0000 0000 0000 000000
2018-06-27 02:12:49,0.00,0.60,0.00,23.02,26.20,28.82,13.94,47.55,1015.64,2033.00,3094.02,2941.00,3357.00,600.33,595.73,38.29,0000 0000 0000 0000 000000
2018-06-27 02:17:50,0.00,0.60,0.00,23.06,26.23,28.84,13.96,47.49,1015.64,2032.99,3093.99,2940.98,3356.92,600.40,595.65,38.34,0000 0000 0000 0000 000000
2018-06-27 02:22:51,0.02,0.60,0.00,23.08,26.26,28.86,13.91,47.52,1015.57,2032.98,3093.98,2940.76,3356.27,599.75,594.93,38.39,0000 0000 0000 0000 000000
2018-06-27 02:27:52,0.01,0.60,0.00,23.12,26.29,28.89,13.86,47.41,1015.31,2032.96,3093.79,2940.26,3356.02,599.98,595.08,38.44,0000 0000 0000 0000 000000
2018-06-27 02:32:54,-0.03,0.61,0.00,23.15,26.32,28.94,13.78,47.52,1015.24,2032.65,3093.07,2940.01,3356.00,599.88,594.82,38.49,0000 0000 0000 0000 000000
2018-06-27 02:37:55,-0.02,0.60,0.00,23.18,26.35,28.95,13.88,47.47,1015.18,2032.21,3093.00,2940.00,3355.92,599.92,594.73,38.54,0000 0000 0000 0000 000000
2018-06-27 02:42:56,0.00,0.60,0.00,23.21,26.38,28.98,13.90,47.53,1015.17,2032.05,3092.98,2939.94,3355.22,600.29,594.95,38.59,0000 0000 0000 0000 000000
2018-06-27 02:47:57,0.02,0.60,0.00,23.25,26.41,29.00,13.87,47.52,1015.18,2032.01,3092.65,2939.40,3355.01,600.04,594.70,38.64,0000 0000 0000 0000 000000
2018-06-27 02:52:58,0.01,0.60,0.00,23.27,26.43,29.04,13.96,47.52,1015.31,2032.00,3092.11,2939.04,3354.99,599.95,594.59,38.69,0000 0000 0000 0000 000000
2018-06-27 02:57:59,0.01,0.60,0.00,23.29,26.46,29.07,13.88,47.34,1015.25,2032.00,3092.00,2939.00,3354.75,600.03,594.69,38.74,0000 0000 0000 0000 000000
2018-06-27 03:03:01,0.01,0.61,0.00,23.34,26.49,29.08,13.92,47.48,1015.16,2032.00,3091.98,2938.97,3354.08,600.08,594.53,38.79,0000 0000 0000 0000 000000
2018-06-27 03:08:02,0.01,0.61,0.00,23.37,26.52,29.12,13.90,47.35,1015.15,2031.98,3091.90,2938.78,3354.00,600.42,594.67,38.84,0000 0000 0000 0000 000000
2018-06-27 03:13:03,0.02,0.61,0.00,23.40,26.55,29.17,13.83,47.56,1015.16,2031.81,3091.19,2938.13,3353.72,599.63,594.17,38.90,0000 0000 0000 0000 000000
2018-06-27 03:18:05,-0.04,0.60,0.00,23.44,26.57,29.18,13.92,47.41,1015.15,2031.14,3090.75,2937.99,3353.02,600.12,594.55,38.95,0000 0000 0000 0000 000000
2018-06-27 03:23:06,0.01,0.60,0.00,23.45,26.60,29.22,13.90,47.37,1015.15,2031.04,3090.25,2937.79,3353.00,599.75,594.14,39.00,0000 0000 0000 0000 000000
2018-06-27 03:28:07,0.01,0.61,0.00,23.48,26.63,29.26,13.83,47.30,1015.15,2031.01,3090.02,2937.14,3352.91,599.88,594.09,39.05,0000 0000 0000 0000 000000
2018-06-27 03:33:08,0.01,0.61,0.00,23.51,26.66,29.28,13.90,47.42,1015.15,2031.00,3090.00,2937.01,3352.39,600.19,594.31,39.10,0000 0000 0000 0000 000000
2018-06-27 03:38:10,0.00,0.61,0.00,23.54,26.69,29.31,13.86,47.27,1015.15,2030.99,3089.97,2937.00,3352.02,599.87,593.90,39.15,0000 0000 0000 0000 000000
2018-06-27 03:43:11,0.01,0.61,0.00,23.58,26.71,29.36,13.83,47.24,1015.14,2030.98,3089.48,2936.93,3351.98,600.03,594.02,39.20,0000 0000 0000 0000 000000
2018-06-27 03:48:12,0.01,0.61,0.00,23.61,26.74,29.37,13.80,47.20,1015.15,2030.89,3089.07,2936.57,3351.89,600.02,593.97,39.25,0000 0000 0000 0000 000000
2018-06-27 03:53:13,-0.01,0.61,0.00,23.63,26.77,29.39,13.85,47.20,1015.15,2030.58,3089.02,2936.08,3351.31,600.06,593.85,39.30,0000 0000 0000 0000 000000
2018-06-27 03:58:14,-0.04,0.61,0.00,23.66,26.80,29.42,13.93,47.40,1015.15,2030.21,3089.00,2936.00,3351.02,600.47,594.25,39.35,0000 0000 0000 0000 000000
2018-06-27 04:03:15,-0.00,0.61,0.00,23.68,26.82,29.46,13.91,47.36,1015.15,2030.01,3088.94,2935.99,3350.98,600.21,594.02,39.40,0000 0000 0000 0000 000000
2018-06-27 04:08:17,0.01,0.61,0.00,23.70,26.86,29.47,13.79,47.25,1015.15,2030.00,3088.50,2935.97,3350.84,599.84,593.62,39.45,0000 0000 0000 0000 000000
2018-06-27 04:13:18,0.03,0.61,0.00,23.73,26.88,29.51,13.82,47.28,1015.15,2030.00,3088.06,2935.53,3350.21,599.75,593.41,39.50,0000 0000 0000 0000 000000
2018-06-27 04:18:19,0.00,0.61,0.00,23.75,26.91,29.52,13.92,47.25,1015.13,2029.98,3088.00,2935.03,3350.00,600.03,593.82,39.55,0000 0000 0000 0000 000000
2018-06-27 04:23:20,0.00,0.61,0.00,23.77,26.94,29.57,13.83,47.29,1014.93,2029.99,3087.98,2935.00,3349.99,599.76,593.35,39.60,0000 0000 0000 0000 000000
2018-06-27 04:28:22,0.01,0.61,0.00,23.79,26.96,29.59,13.84,47.34,1014.74,2029.93,3087.71,2934.98,3349.76,600.10,593.39,39.65,0000 0000 0000 0000 000000
2018-06-27 04:33:23,0.01,0.61,0.00,23.80,26.99,29.61,13.96,47.35,1014.67,2029.81,3087.06,2934.78,3349.11,600.56,593.72,39.70,0000 0000 0000 0000 000000
2018-06-27 04:38:24,-0.03,0.61,0.00,23.83,27.02,29.64,13.85,47.32,1014.67,2029.29,3087.00,2934.15,3349.00,599.92,593.13,39.75,0000 0000 0000 0000 000000
2018-06-27 04:43:25,-0.01,0.61,0.00,23.85,27.05,29.67,13.91,47.30,1014.66,2029.06,3086.97,2934.01,3348.98,599.90,593.12,39.81,0000 0000 0000 0000 000000
2018-06-27 04:48:27,0.01,0.61,0.00,23.87,27.07,29.69,13.91,47.35,1014.66,2029.01,3086.67,2934.00,3348.58,600.24,593.38,39.86,0000 0000 0000 0000 000000
2018-06-27 04:53:28,0.01,0.61,0.00,23.90,27.10,29.73,13.83,47.32,1014.66,2029.00,3086.15,2933.98,3348.05,600.01,593.15,39.91,0000 0000 0000 0000 000000
2018-06-27 04:58:29,0.00,0.61,0.00,23.92,27.12,29.73,13.87,47.27,1014.51,2029.00,3086.01,2933.92,3348.01,599.99,592.85,39.96,0000 0000 0000 0000 000000
2018-06-27 05:03:30,0.02,0.61,0.00,23.94,27.15,29.77,13.82,47.31,1014.32,2029.00,3086.00,2933.55,3348.00,600.03,592.76,40.01,0000 0000 0000 0000 000000
2018-06-27 05:08:31,0.01,0.61,0.00,23.96,27.17,29.79,13.79,47.09,1014.36,2029.00,3085.99,2933.05,3347.96,599.87,592.67,40.06,0000 0000 0000 0000 000000
2018-06-27 05:13:33,0.01,0.61,0.00,23.98,27.19,29.82,13.82,46.91,1014.46,2028.97,3085.68,2933.00,3347.34,600.06,592.85,40.11,0000 0000 0000 0000 000000
2018-06-27 05:18:34,0.00,0.61,0.00,23.99,27.21,29.86,13.80,46.83,1014.33,2028.92,3085.13,2933.00,3347.02,599.74,592.53,40.16,0000 0000 0000 0000 000000
2018-06-27 05:23:35,-0.01,0.61,0.00,24.00,27.24,29.86,13.77,46.77,1014.21,2028.83,3085.04,2932.96,3347.00,599.76,592.29,40.21,0000 0000 0000 0000 000000
2018-06-27 05:28:36,0.00,0.61,0.00,24.03,27.26,29.88,13.77,46.86,1014.19,2028.70,3085.00,2932.79,3346.99,599.69,592.23,40.26,0000 0000 0000 0000 000000
2018-06-27 05:33:38,-0.03,0.61,0.00,24.05,27.28,29.91,13.88,46.85,1014.18,2028.16,3084.97,2932.13,3346.75,600.02,592.50,40.31,0000 0000 0000 0000 000000
2018-06-27 05:38:39,0.01,0.61,0.00,24.06,27.31,29.94,13.83,46.59,1014.18,2028.03,3084.72,2932.00,3346.10,599.73,592.37,40.36,0000 0000 0000 0000 000000
2018-06-27 05:43:40,0.00,0.61,0.00,24.08,27.33,29.96,13.81,46.77,1014.16,2028.01,3084.21,2931.99,3346.01,600.21,592.67,40.41,0000 0000 0000 0000 000000
2018-06-27 05:48:42,0.00,0.61,0.00,24.11,27.35,29.98,13.83,46.55,1014.15,2028.01,3084.02,2931.98,3345.99,600.03,592.41,40.46,0000 0000 0000 0000 000000
2018-06-27 05:53:43,0.00,0.61,0.00,24.11,27.37,30.00,13.87,46.81,1014.13,2028.00,3084.00,2931.86,3345.81,600.11,592.52,40.51,0000 0000 0000 0000 000000
2018-06-27 05:58:44,0.02,0.61,0.00,24.12,27.40,30.01,13.84,46.89,1014.16,2028.00,3083.97,2931.28,3345.20,600.15,592.50,40.56,0000 0000 0000 0000 000000
2018-06-27 06:03:46,0.01,0.61,0.00,24.13,27.41,30.05,13.85,46.58,1014.07,2027.99,3083.61,2931.05,3345.02,600.37,592.69,40.61,0000 0000 0000 0000 000000
2018-06-27 06:08:47,-0.00,0.61,0.00,24.17,27.43,30.06,13.81,46.66,1014.06,2027.93,3083.08,2931.00,3344.99,600.04,592.17,40.66,0000 0000 0000 0000 000000
2018-06-27 06:13:48,-0.01,0.61,0.00,24.20,27.45,30.07,13.84,46.49,1014.16,2027.79,3083.00,2931.00,3344.94,600.04,592.34,40.71,0000 0000 0000 0000 000000
2018-06-27 06:18:49,-0.02,0.61,0.00,24.21,27.47,30.09,13.78,46.48,1014.17,2027.44,3083.00,2930.94,3344.47,600.13,592.29,40.76,0000 0000 0000 0000 000000
2018-06-27 06:23:51,0.01,0.61,0.00,24.22,27.50,30.12,13.85,46.59,1014.17,2027.14,3082.96,2930.46,3344.04,600.48,592.68,40.82,0000 0000 0000 0000 000000
2018-06-27 06:28:52,0.00,0.61,0.00,24.25,27.51,30.12,13.79,46.51,1014.17,2027.04,3082.70,2930.09,3344.00,600.10,592.32,40.87,0000 0000 0000 0000 000000
2018-06-27 06:33:53,0.01,0.61,0.00,24.25,27.53,30.15,13.83,46.52,1014.19,2027.01,3082.08,2930.02,3343.98,599.92,592.11,40.92,0000 0000 0000 0000 000000
2018-06-27 06:38:55,0.00,0.61,0.00,24.27,27.55,30.18,13.81,46.56,1014.21,2027.00,3082.00,2930.00,3343.83,600.38,592.39,40.97,0000 0000 0000 0000 000000
2018-06-27 06:43:56,0.00,0.61,0.00,24.30,27.57,30.20,13.76,46.58,1014.32,2027.00,3082.00,2930.00,3343.65,600.06,592.22,41.02,0000 0000 0000 0000 000000
2018-06-27 06:48:57,0.01,0.61,0.00,24.32,27.59,30.21,13.82,46.57,1014.38,2027.00,3081.97,2929.95,3343.10,600.27,592.37,41.07,0000 0000 0000 0000 000000
2018-06-27 06:53:59,0.02,0.61,0.00,24.35,27.61,30.23,13.79,46.58,1014.50,2027.00,3081.60,2929.52,3343.00,599.75,591.83,41.12,0000 0000 0000 0000 000000
2018-06-27 06:59:00,0.01,0.61,0.00,24.37,27.63,30.23,13.86,46.65,1014.57,2026.98,3081.08,2929.10,3342.99,600.29,592.33,41.17,0000 0000 0000 0000 000000
2018-06-27 07:04:01,0.00,0.61,0.00,24.40,27.65,30.27,13.82,46.69,1014.33,2026.95,3081.00,2929.00,3342.70,600.25,592.16,41.22,0000 0000 0000 0000 000000
2018-06-27 07:09:03,0.00,0.61,0.00,24.42,27.67,30.27,13.79,46.71,1014.29,2026.95,3081.00,2929.00,3342.25,600.03,591.88,41.27,0000 0000 0000 0000 000000
2018-06-27 07:14:04,-0.02,0.61,0.00,24.45,27.70,30.30,13.79,46.74,1014.34,2026.75,3080.98,2928.99,3342.01,599.92,591.72,41.32,0000 0000 0000 0000 000000
2018-06-27 07:19:05,-0.02,0.61,0.00,24.48,27.72,30.32,13.69,46.79,1014.33,2026.32,3080.61,2928.80,3341.98,599.88,591.53,41.37,0000 0000 0000 0000 000000
2018-06-27 07:24:07,0.01,0.61,0.00,24.51,27.74,30.32,13.80,46.79,1014.26,2026.09,3080.07,2928.19,3341.84,600.12,591.75,41.42,0000 0000 0000 0000 000000
2018-06-27 07:29:08,0.01,0.61,0.00,24.55,27.76,30.35,13.89,46.88,1014.25,2026.02,3080.00,2928.02,3341.18,600.10,591.56,41.47,0000 0000 0000 0000 000000
2018-06-27 07:34:10,0.00,0.61,0.00,24.58,27.78,30.37,13.77,46.95,1014.36,2026.00,3079.99,2927.99,3340.99,600.06,591.70,41.52,0000 0000 0000 0000 000000
2018-06-27 07:39:11,0.00,0.61,0.00,24.62,27.80,30.40,13.89,46.92,1014.24,2026.00,3079.75,2927.98,3340.96,600.24,591.75,41.57,0000 0000 0000 0000 000000
2018-06-27 07:44:12,0.01,0.61,0.00,24.65,27.82,30.41,13.76,46.94,1014.20,2026.00,3079.18,2927.90,3340.76,599.65,591.05,41.62,0000 0000 0000 0000 000000
2018-06-27 07:49:14,0.02,0.62,0.00,24.67,27.85,30.43,13.86,46.98,1014.20,2026.00,3079.03,2927.44,3340.17,600.24,591.56,41.68,0000 0000 0000 0000 000000
2018-06-27 07:54:15,0.00,0.62,0.00,24.71,27.87,30.44,13.78,46.93,1014.20,2026.00,3079.00,2927.07,3340.01,599.81,591.12,41.73,0000 0000 0000 0000 000000
2018-06-27 07:59:17,0.00,0.62,0.00,24.74,27.89,30.47,13.79,46.90,1014.19,2025.96,3078.96,2927.00,3339.98,599.67,590.87,41.78,0000 0000 0000 0000 000000
2018-06-27 08:04:18,0.01,0.62,0.00,24.77,27.91,30.50,13.71,46.88,1014.19,2025.88,3078.54,2926.98,3339.73,599.75,590.82,41.83,0000 0000 0000 0000 000000
2018-06-27 08:09:19,-0.01,0.62,0.00,24.78,27.93,30.51,13.77,46.86,1014.22,2025.58,3078.06,2926.87,3339.11,600.33,591.42,41.88,0000 0000 0000 0000 000000
2018-06-27 08:14:20,-0.02,0.62,0.00,24.81,27.96,30.53,13.72,46.89,1014.26,2025.16,3078.00,2926.22,3339.00,599.67,590.71,41.93,0000 0000 0000 0000 000000
2018-06-27 08:19:22,-0.00,0.62,0.00,24.83,27.98,30.57,13.82,46.93,1014.28,2025.03,3077.97,2926.01,3338.96,600.30,591.30,41.98,0000 0000 0000 0000 000000
2018-06-27 08:24:23,0.00,0.62,0.00,24.86,28.01,30.58,13.85,46.91,1014.25,2025.01,3077.83,2926.00,3338.76,599.91,590.84,42.03,0000 0000 0000 0000 000000
2018-06-27 08:29:24,0.01,0.62,0.00,24.88,28.03,30.61,13.74,46.98,1014.27,2025.00,3077.31,2925.99,3338.15,599.60,590.43,42.08,0000 0000 0000 0000 000000
2018-06-27 08:34:25,0.00,0.62,0.00,24.91,28.05,30.63,13.78,46.91,1014.45,2025.00,3077.02,2925.84,3338.00,600.03,591.02,42.13,0000 0000 0000 0000 000000
2018-06-27 08:39:27,0.01,0.62,0.00,24.95,28.08,30.65,13.73,47.08,1014.37,2024.98,3077.00,2925.26,3337.98,599.47,590.30,42.18,0000 0000 0000 0000 000000
2018-06-27 08:44:28,0.01,0.62,0.00,24.97,28.10,30.67,13.76,47.13,1014.30,2024.98,3076.94,2925.05,3337.65,599.56,590.41,42.23,0000 0000 0000 0000 000000
2018-06-27 08:49:29,0.01,0.62,0.00,24.99,28.13,30.71,13.75,46.98,1014.36,2024.97,3076.64,2925.00,3337.12,599.85,590.67,42.28,0000 0000 0000 0000 000000
2018-06-27 08:54:30,-0.02,0.62,0.00,25.01,28.16,30.74,13.80,46.96,1014.41,2024.75,3076.11,2925.00,3337.01,599.88,590.62,42.33,0000 0000 0000 0000 000000
2018-06-27 08:59:31,-0.03,0.62,0.00,25.04,28.17,30.77,13.83,47.06,1014.50,2024.26,3076.00,2924.86,3336.99,600.00,590.79,42.38,0000 0000 0000 0000 000000
2018-06-27 09:04:33,0.01,0.62,0.00,25.06,28.20,30.78,13.84,47.15,1014.58,2024.05,3075.99,2924.26,3336.70,600.15,590.82,42.43,0000 0000 0000 0000 000000
2018-06-27 09:09:34,0.01,0.62,0.00,25.10,28.23,30.80,13.79,47.03,1014.63,2024.00,3075.67,2924.01,3336.05,600.18,590.87,42.48,0000 0000 0000 0000 000000
2018-06-27 09:14:36,0.00,0.62,0.00,25.13,28.26,30.85,13.83,47.08,1014.43,2024.00,3075.12,2924.00,3336.00,600.40,590.87,42.53,0000 0000 0000 0000 000000
2018-06-27 09:19:37,0.00,0.62,0.00,25.17,28.28,30.86,13.72,47.01,1014.20,2024.00,3075.00,2923.97,3335.96,600.04,590.27,42.58,0000 0000 0000 0000 000000
2018-06-27 09:24:38,0.01,0.62,0.00,25.20,28.31,30.89,13.72,46.92,1014.19,2023.98,3075.00,2923.79,3335.63,599.98,590.26,42.64,0000 0000 0000 0000 000000
2018-06-27 09:29:39,0.02,0.62,0.00,25.24,28.34,30.93,13.76,47.13,1014.20,2023.96,3074.94,2923.15,3335.07,599.73,589.95,42.69,0000 0000 0000 0000 000000
2018-06-27 09:34:41,-0.01,0.62,0.00,25.28,28.37,30.93,13.76,47.07,1014.19,2023.85,3074.41,2923.00,3335.00,600.14,590.21,42.74,0000 0000 0000 0000 000000
2018-06-27 09:39:42,-0.04,0.62,0.00,25.31,28.40,30.96,13.75,47.06,1014.18,2023.29,3074.02,2922.99,3334.87,600.05,590.01,42.79,0000 0000 0000 0000 000000
2018-06-27 09:44:44,0.01,0.62,0.00,25.36,28.43,31.01,13.77,46.94,1014.18,2023.04,3073.99,2922.65,3334.13,600.07,589.99,42.84,0000 0000 0000 0000 000000
2018-06-27 09:49:45,0.01,0.62,0.00,25.39,28.46,31.01,13.78,46.98,1014.19,2023.00,3073.88,2922.07,3334.00,600.39,590.16,42.89,0000 0000 0000 0000 000000
2018-06-27 09:54:46,0.01,0.62,0.00,25.44,28.49,31.04,13.74,46.99,1014.18,2023.00,3073.25,2922.02,3333.97,600.23,590.03,42.94,0000 0000 0000 0000 000000
2018-06-27 09:59:48,0.01,0.62,0.00,25.49,28.53,31.10,13.71,46.98,1014.19,2022.98,3073.01,2921.99,3333.35,599.51,589.23,42.99,0000 0000 0000 0000 000000
2018-06-27 10:04:49,0.00,0.62,0.00,25.53,28.56,31.12,13.70,46.93,1014.19,2022.93,3072.95,2921.76,3333.02,600.00,589.55,43.04,0000 0000 0000 0000 000000
2018-06-27 10:09:50,-0.03,0.62,0.00,25.59,28.60,31.15,13.75,46.92,1014.18,2022.43,3072.50,2921.07,3332.95,599.85,589.44,43.09,0000 0000 0000 0000 000000
2018-06-27 10:14:51,0.00,0.62,0.00,25.63,28.64,31.19,13.69,47.00,1014.18,2022.11,3072.05,2921.00,3332.51,599.85,589.22,43.14,0000 0000 0000 0000 000000
2018-06-27 10:19:53,-0.00,0.62,0.00,25.69,28.67,31.22,13.79,47.02,1014.18,2022.02,3072.00,2920.99,3332.06,600.21,589.39,43.19,0000 0000 0000 0000 000000
2018-06-27 10:24:54,0.01,0.62,0.00,25.73,28.71,31.29,13.69,46.92,1014.19,2022.00,3071.98,2920.68,3331.99,599.89,589.01,43.24,0000 0000 0000 0000 000000
2018-06-27 10:29:55,0.03,0.62,0.00,25.78,28.76,31.33,13.73,46.97,1014.18,2022.00,3071.62,2920.09,3331.62,600.18,589.23,43.29,0000 0000 0000 0000 000000
2018-06-27 10:34:57,0.00,0.62,0.00,25.85,28.80,31.40,13.74,46.98,1014.18,2021.90,3071.03,2919.99,3331.02,599.81,588.69,43.34,0000 0000 0000 0000 000000
2018-06-27 10:39:58,-0.04,0.62,0.00,25.91,28.84,31.46,13.73,46.99,1014.17,2021.49,3071.00,2919.78,3330.97,600.06,588.69,43.39,0000 0000 0000 0000 000000
2018-06-27 10:44:59,0.01,0.62,0.00,25.97,28.88,31.54,13.71,46.98,1014.17,2021.05,3070.80,2919.14,3330.31,599.88,588.50,43.44,0000 0000 0000 0000 000000
2018-06-27 10:50:00,0.01,0.62,0.00,26.03,28.93,31.60,13.68,46.88,1014.17,2021.00,3070.11,2919.00,3330.00,600.00,588.55,43.49,0000 0000 0000 0000 000000
2018-06-27 10:55:01,0.01,0.62,0.00,26.10,28.97,31.68,13.67,46.88,1014.18,2021.00,3070.00,2918.84,3329.70,600.16,588.56,43.55,0000 0000 0000 0000 000000
2018-06-27 11:00:02,0.02,0.62,0.00,26.16,29.01,31.77,13.69,46.88,1014.18,2020.94,3069.82,2918.09,3329.06,600.05,588.38,43.60,0000 0000 0000 0000 000000
2018-06-27 11:05:04,-0.04,0.62,0.00,26.23,29.06,31.84,13.71,46.81,1014.18,2020.51,3069.15,2917.99,3328.98,600.17,588.40,43.65,0000 0000 0000 0000 000000
2018-06-27 11:10:05,-0.02,0.62,0.00,26.30,29.10,31.90,13.71,46.92,1014.18,2020.08,3069.01,2917.98,3328.69,600.26,588.30,43.70,0000 0000 0000 0000 000000
2018-06-27 11:15:06,0.02,0.62,0.00,26.37,29.15,31.96,13.58,46.75,1014.18,2020.04,3069.00,2917.60,3328.11,599.99,587.87,43.75,0000 0000 0000 0000 000000
2018-06-27 11:20:07,0.01,0.62,0.00,26.44,29.19,31.99,13.77,46.81,1014.18,2020.00,3068.78,2917.04,3328.00,599.99,587.78,43.80,0000 0000 0000 0000 000000
2018-06-27 11:25:09,0.01,0.62,0.00,26.46,29.23,32.01,13.65,46.84,1014.19,2020.00,3068.08,2917.00,3327.94,599.81,587.71,43.85,0000 0000 0000 0000 000000
2018-06-27 11:30:10,0.01,0.62,0.00,26.49,29.26,31.98,13.72,46.80,1014.18,2019.96,3068.00,2916.98,3327.18,599.95,587.72,43.90,0000 0000 0000 0000 000000
2018-06-27 11:35:11,0.01,0.62,0.00,26.50,29.29,31.98,13.66,46.74,1014.19,2019.88,3067.99,2916.70,3327.01,599.98,587.47,43.95,0000 0000 0000 0000 000000
2018-06-27 11:40:12,-0.04,0.62,0.00,26.50,29.33,31.99,13.70,46.78,1014.18,2019.26,3067.69,2916.10,3326.99,600.03,587.83,44.00,0000 0000 0000 0000 000000
2018-06-27 11:45:13,0.00,0.62,0.00,26.49,29.36,32.04,13.73,46.83,1014.18,2019.04,3067.17,2916.00,3326.92,600.09,587.81,44.05,0000 0000 0000 0000 000000
2018-06-27 11:50:15,0.01,0.62,0.00,26.48,29.38,32.08,13.70,46.81,1014.18,2019.00,3067.01,2916.00,3326.37,600.22,587.88,44.10,0000 0000 0000 0000 000000
2018-06-27 11:55:16,0.00,0.62,0.00,26.43,29.40,32.13,13.72,46.73,1014.18,2019.00,3066.99,2915.90,3326.01,600.12,587.83,44.15,0000 0000 0000 0000 000000
2018-06-27 12:00:17,0.01,0.62,0.00,26.37,29.42,32.17,13.78,46.75,1014.18,2019.00,3066.90,2915.59,3326.00,600.19,588.09,44.20,0000 0000 0000 0000 000000
2018-06-27 12:05:18,0.02,0.62,0.00,26.28,29.44,32.17,13.70,46.92,1014.18,2018.99,3066.39,2915.20,3325.97,600.11,588.19,44.25,0000 0000 0000 0000 000000
2018-06-27 12:10:19,0.00,0.62,0.00,26.20,29.45,32.21,13.68,46.86,1014.18,2018.97,3066.07,2915.03,3325.82,599.74,588.04,44.30,0000 0000 0000 0000 000000
2018-06-27 12:15:21,-0.00,0.62,0.00,26.14,29.45,32.26,13.82,46.92,1014.18,2018.92,3066.00,2915.00,3325.29,600.05,588.50,44.35,0000 0000 0000 0000 000000
2018-06-27 12:20:22,-0.02,0.62,0.00,26.08,29.47,32.40,13.72,46.97,1014.18,2018.74,3066.00,2915.00,3325.03,600.19,588.58,44.40,0000 0000 0000 0000 000000
2018-06-27 12:25:23,-0.00,0.62,0.00,26.03,29.47,32.44,13.68,47.02,1014.17,2018.63,3066.00,2915.00,3325.00,599.72,588.28,44.46,0000 0000 0000 0000 000000
2018-06-27 12:30:24,-0.03,0.62,0.00,25.98,29.47,32.44,13.71,47.08,1014.16,2018.32,3065.97,2914.96,3325.00,599.95,588.61,44.51,0000 0000 0000 0000 000000
2018-06-27 12:35:26,0.01,0.62,0.00,25.94,29.47,32.46,13.81,47.03,1014.10,2018.33,3065.91,2914.96,3325.00,599.80,588.51,44.56,0000 0000 0000 0000 000000
2018-06-27 12:40:27,-0.01,0.62,0.00,25.91,29.47,32.50,13.80,47.05,1014.11,2018.22,3065.77,2914.94,3324.99,600.02,588.75,44.61,0000 0000 0000 0000 000000
2018-06-27 12:45:28,0.01,0.62,0.00,25.88,29.47,32.49,13.72,47.04,1013.98,2018.23,3065.57,2914.94,3324.98,599.78,588.60,44.66,0000 0000 0000 0000 000000
2018-06-27 12:50:30,0.00,0.62,0.00,25.86,29.47,32.48,13.77,47.12,1013.98,2018.22,3065.42,2914.94,3324.98,599.76,588.59,44.71,0000 0000 0000 0000 000000
2018-06-27 12:55:31,-0.00,0.62,0.00,25.82,29.47,32.50,13.77,47.08,1014.14,2018.15,3065.13,2914.80,3324.96,599.85,588.86,44.76,0000 0000 0000 0000 000000